64013000, 5301503, 2017-01-02 03:00:00, 13.35720, 109.26680, 662,   7,  12, -5.00, 999.60, 14.80, 1,   1, 255, 0.000
64013000, 5301503, 2017-01-02 04:00:00, 13.35720, 109.26680,   0,   8,   6, -5.00, 1000.00, 14.80, 1,  16, 255, 0.000
64013000, 5301503, 2017-01-03 20:00:00, 13.35740, 109.26680, 241,   7,  12, -5.00, 996.80, 14.80, 0,   1, 255, 0.000
64013000, 5301503, 2017-01-03 21:00:00, 13.35740, 109.26680, 301,   8,  12, -5.00, 996.60, 14.80, 1,   8, 255, 0.000
64013000, 5301503, 2017-01-03 22:00:00, 13.35740, 109.26680, 361,   7,  12, -5.00, 996.40, 14.80, 0,   8, 255, 0.000
64013000, 5301503, 2017-01-03 23:00:00, 13.35740, 109.26680, 421,   7,  12, -5.00, 996.20, 14.80, 1,  24, 255, 0.000
64013000, 5301503, 2017-01-04 06:00:00, 13.35740, 109.26680, 841,   8,  12, -5.00, 996.40, 14.80, 0,   1, 255, 0.000
64015370, 5301502, 2017-01-02 00:00:00, 5.87180, 103.11360,   0,  11,   1, 35.95, 997.20, 8.20, 0,   9, 255, 0.000
64015370, 5301502, 2017-01-02 01:00:00, 5.86680, 103.10500,   0,  11,   1, 35.95, 996.50, 8.20, 0,  10, 255, 0.000
64015370, 5301502, 2017-01-02 02:00:00, 5.86380, 103.09580,   0,  12,   1, 35.95, 993.30, 8.20, 0,   7, 255, 0.000
64015370, 5301502, 2017-01-02 03:00:00, 5.86020, 103.08720,   0,  11,   1, 35.95, 993.00, 8.20, 2,  12, 255, 0.000
64015370, 5301502, 2017-01-02 04:00:00, 5.85520, 103.07940,   0,  10,   1, 35.95, 993.30, 8.20, 0,   9, 255, 0.000
64015370, 5301502, 2017-01-02 05:00:00, 5.84900, 103.07260,   0,  11,   1, 35.95, 988.60, 8.40, 0,  14, 255, 0.000
64015370, 5301502, 2017-01-02 06:00:00, 5.84520, 103.06840,   0,  11,   1, 35.95, 987.00, 8.20, 0,  11, 255, 0.000
64015370, 5301502, 2017-01-02 07:00:00, 5.84120, 103.06680,   0,  11,   1, 35.95, 991.70, 8.00, 0,   4, 255, 0.000
64015370, 5301502, 2017-01-02 08:00:00, 5.83520, 103.06560,   0,  11,   1, 35.95, 989.10, 8.00, 0,   8, 255, 0.000
64015370, 5301502, 2017-01-02 09:00:00, 5.82740, 103.06480,   0,  11,   1, 35.95, 991.40, 8.00, 0,   8, 255, 0.000
64015370, 5301502, 2017-01-02 10:00:00, 5.81520, 103.06680,   0,  12,   1, 35.95, 990.70, 8.00, 0,  26, 255, 0.000
64015370, 5301502, 2017-01-02 11:00:00, 5.79960, 103.06960,   0,  11,   1, 35.95, 987.00, 7.80, 0,  11, 255, 0.000
64015370, 5301502, 2017-01-02 12:00:00, 5.78140, 103.07260,   0,  11,   1, 35.95, 987.50, 7.80, 0,  11, 255, 0.000
64015370, 5301502, 2017-01-02 13:00:00, 5.76060, 103.07280,   0,  11,   1, 35.95, 993.10, 7.80, 0,  10, 255, 0.000
64015370, 5301502, 2017-01-02 14:00:00, 5.74180, 103.06820,   0,  11,   1, 35.95, 992.80, 7.80, 0,   9, 255, 0.000
64015370, 5301502, 2017-01-02 15:00:00, 5.74020, 103.06040,   0,  11,   1, 35.95, 996.70, 7.80, 0,  10, 255, 0.000
64015370, 5301502, 2017-01-02 16:00:00, 5.74500, 103.05200,   0,  11,   2, 35.95, 996.80, 7.80, 0,  11, 255, 0.000
64015370, 5301502, 2017-01-02 17:00:00, 5.75180, 103.04160,   0,  11,   1, 35.95, 997.40, 7.80, 0,   8, 255, 0.000
64015370, 5301502, 2017-01-02 18:00:00, 5.75780, 103.03360,   0,  12,   1, 35.95, 996.90, 7.80, 0,   9, 255, 0.000
64015370, 5301502, 2017-01-02 19:00:00, 5.75740, 103.03040,   0,  11,   1, 35.95, 996.60, 7.80, 0,   8, 255, 0.000
64015370, 5301502, 2017-01-02 20:00:00, 5.75620, 103.02720,   0,  11,   1, 35.95, 995.80, 7.60, 0,  16, 255, 0.000
64015370, 5301502, 2017-01-02 21:00:00, 5.75580, 103.02680,   0,  11,   1, 35.95, 995.40, 7.60, 0,   7, 255, 0.000
64015370, 5301502, 2017-01-02 23:00:00, 5.75580, 103.02680,   0,  11,   1, 35.95, 978.30, 7.40, 0,   4, 255, 0.000
64015370, 5301502, 2017-01-03 00:00:00, 5.75580, 103.02680,   0,  11,   1, 35.95, 958.20, 7.40, 0,  17, 255, 0.000
64015370, 5301502, 2017-01-03 01:00:00, 5.75580, 103.02680,   0,  11,   1, 35.95, 962.00, 7.40, 0,   9, 255, 0.000
64015370, 5301502, 2017-01-03 02:00:00, 5.75580, 103.02680,   0,  12,   1, 35.95, 954.80, 7.40, 0,   8, 255, 0.000
64015370, 5301502, 2017-01-03 03:00:00, 5.75580, 103.02680,   0,  11,   1, 35.95, 950.30, 7.40, 0,  13, 255, 0.000
64015370, 5301502, 2017-01-03 04:00:00, 5.75580, 103.02680,   0,  11,   1, 35.95, 948.20, 7.20, 0,  11, 255, 0.000
64015370, 5301502, 2017-01-03 05:00:00, 5.75580, 103.02680,   0,  10,   1, 35.95, 954.20, 7.40, 0,  66, 255, 0.000
64015370, 5301502, 2017-01-03 06:00:00, 5.75580, 103.02660,   0,  11,   1, 35.95, 946.90, 7.20, 0,  11, 255, 0.000
64015370, 5301502, 2017-01-03 07:00:00, 5.75580, 103.02680,   0,  11,   1, 35.95, 995.50, 8.00, 0,   8, 255, 0.000
64015370, 5301502, 2017-01-03 08:00:00, 5.75580, 103.02680,   0,  10,   1, 35.95, 991.40, 8.00, 0,   9, 255, 0.000
64015370, 5301502, 2017-01-03 09:00:00, 5.75580, 103.02680,   0,  11,   1, 35.95, 995.50, 8.20, 0,  11, 255, 0.000
64015370, 5301502, 2017-01-03 10:00:00, 5.75580, 103.02680,   0,  12,   1, 35.95, 995.90, 8.20, 0,  12, 255, 0.000
64015370, 5301502, 2017-01-03 11:00:00, 5.75580, 103.02680,   0,  11,   1, 35.95, 996.30, 8.20, 0,  10, 255, 0.000
64015370, 5301502, 2017-01-03 12:00:00, 5.75580, 103.02680,   0,  11,   1, 35.95, 996.70, 8.00, 0,  11, 255, 0.000
64015370, 5301502, 2017-01-03 13:00:00, 5.75480, 103.02580,   0,  10,   1, 35.95, 996.90, 8.00, 0,  11, 255, 0.000
